STARLINK-11512 [DTC] (62517 NORAD) Tracking and Keplerian Element Data

This shows tracking and keplerian element data for the satellite.

Feedback or suggestion? Click here.




ElementValue
Catalog62517
NameSTARLINK-11512 [DTC]
Epoch Orbit436
Epoch Day34.17028769
Epoch Year2025
RAAN319.8903
Inclination42.9993
Eccentricity0.000169
Argument of Perigee287.8061
Mean Anonmoly72.2625
Mean Motion15.77777995
Decay Rate-0.00024133
L11 62517U 25004G 25034.17028769 -.00024133 00000+0 -13668-3 0 9997
L22 62517 42.9993 319.8903 0001690 287.8061 72.2625 15.77777995 4361



Live tracking and technical data element details for STARLINK-11512 [DTC] (NORAD 62517). STARLINK-11512 [DTC] can be tracked NOW for your location showing map with azimuth and elevation plus other details from your city location.







IsCatalogInMostPopularTable: catalog: 62517, numindb: 14
Update: records affected: 1



GetName: 62517 STARLINK-11512 [DTC]

Hit Count: updated at: Mon, 19 May 2025 03:22:52 GMT